• In Hungary
  • List of Countries
  • For 7 days
  • Water Temperature
  • Satellite Maps
  • Weather Map
  • News
  • Weather Widgets
  • user-avatar
    Login

    Hourly Weather Shilda

    Today, 19 June, Tuesday

    Time Temperature Precipitation Wind Pressure Humidity
    00:00 +14°C° 0 mm 3 mps 725 mmHg 81%
    01:00 +13°C° 0 mm 3 mps 725 mmHg 85%
    02:00 +13°C° 0 mm 3 mps 725 mmHg 87%
    03:00 +12°C° 0 mm 3 mps 725 mmHg 89%
    04:00 +12°C° 0 mm 3 mps 725 mmHg 91%
    05:00 +13°C° 0 mm 3 mps 725 mmHg 85%
    06:00 +16°C° 0 mm 3 mps 725 mmHg 79%
    07:00 +17°C° 0 mm 3 mps 726 mmHg 72%
    08:00 +19°C° 0 mm 3 mps 726 mmHg 65%
    09:00 +21°C° 0 mm 3 mps 726 mmHg 57%
    10:00 +22°C° 0 mm 4 mps 726 mmHg 50%
    11:00 +23°C° 0 mm 4 mps 726 mmHg 46%
    12:00 +25°C° 0 mm 4 mps 726 mmHg 43%
    13:00 +26°C° 0 mm 4 mps 726 mmHg 39%
    14:00 +26°C° 0 mm 4 mps 726 mmHg 40%
    15:00 +26°C° 0 mm 4 mps 726 mmHg 41%
    16:00 +26°C° 0 mm 4 mps 726 mmHg 42%
    17:00 +25°C° 0 mm 4 mps 726 mmHg 46%
    18:00 +25°C° 0 mm 4 mps 726 mmHg 50%
    19:00 +23°C° 0 mm 4 mps 726 mmHg 54%
    20:00 +21°C° 0 mm 4 mps 726 mmHg 60%
    21:00 +20°C° 0 mm 4 mps 726 mmHg 65%
    22:00 +18°C° 0 mm 3 mps 727 mmHg 70%
    23:00 +18°C° 0 mm 3 mps 726 mmHg 74%

    Tomorrow, 20 June, Wednesday

    Time Temperature Precipitation Wind Pressure Humidity
    00:00 +17°C° 0 mm 3 mps 726 mmHg 77%
    01:00 +16°C° 0 mm 3 mps 726 mmHg 81%
    02:00 +16°C° 0 mm 3 mps 727 mmHg 82%
    03:00 +14°C° 0 mm 3 mps 727 mmHg 84%
    04:00 +14°C° 0 mm 3 mps 727 mmHg 86%
    05:00 +16°C° 0 mm 3 mps 727 mmHg 79%
    06:00 +18°C° 0 mm 3 mps 727 mmHg 73%
    07:00 +19°C° 0 mm 3 mps 727 mmHg 66%
    08:00 +21°C° 0 mm 3 mps 727 mmHg 58%
    09:00 +22°C° 0 mm 3 mps 727 mmHg 50%
    10:00 +25°C° 0 mm 3 mps 728 mmHg 42%
    11:00 +26°C° 0 mm 4 mps 727 mmHg 41%
    12:00 +26°C° 0 mm 4 mps 727 mmHg 40%
    13:00 +27°C° 0 mm 4 mps 727 mmHg 39%
    14:00 +26°C° 0 mm 5 mps 727 mmHg 41%
    15:00 +26°C° 0 mm 6 mps 727 mmHg 43%
    16:00 +26°C° 0 mm 6 mps 726 mmHg 45%
    17:00 +24°C° 0 mm 6 mps 726 mmHg 49%
    18:00 +25°C° 0 mm 5 mps 726 mmHg 53%
    19:00 +23°C° 0 mm 5 mps 726 mmHg 56%
    20:00 +22°C° 0 mm 5 mps 726 mmHg 60%
    21:00 +20°C° 0 mm 5 mps 726 mmHg 64%
    22:00 +19°C° 0 mm 4 mps 726 mmHg 68%
    23:00 +19°C° 0 mm 5 mps 725 mmHg 66%

    Day after tomorrow, 21 June, Thursday

    Time Temperature Precipitation Wind Pressure Humidity
    00:00 +19°C° 0 mm 6 mps 725 mmHg 64%
    01:00 +19°C° 0 mm 6 mps 724 mmHg 63%
    02:00 +19°C° 0 mm 6 mps 724 mmHg 64%
    03:00 +17°C° 0 mm 6 mps 724 mmHg 66%
    04:00 +17°C° 0 mm 6 mps 724 mmHg 67%
    05:00 +17°C° 0 mm 6 mps 724 mmHg 65%
    06:00 +19°C° 0 mm 6 mps 725 mmHg 64%
    07:00 +19°C° 0 mm 6 mps 725 mmHg 62%
    08:00 +19°C° 0 mm 6 mps 725 mmHg 55%
    09:00 +20°C° 0 mm 7 mps 725 mmHg 48%
    10:00 +21°C° 0 mm 7 mps 725 mmHg 41%
    11:00 +22°C° 0 mm 7 mps 725 mmHg 39%
    12:00 +22°C° 0 mm 8 mps 725 mmHg 38%
    13:00 +23°C° 0 mm 8 mps 725 mmHg 36%
    14:00 +22°C° 0 mm 9 mps 725 mmHg 37%
    15:00 +22°C° 0 mm 9 mps 725 mmHg 39%
    16:00 +22°C° 0 mm 9 mps 725 mmHg 41%
    17:00 +21°C° 0 mm 9 mps 725 mmHg 44%
    18:00 +20°C° 0 mm 8 mps 725 mmHg 48%
    19:00 +20°C° 0 mm 7 mps 725 mmHg 51%
    20:00 +17°C° 0 mm 7 mps 725 mmHg 55%
    21:00 +16°C° 0 mm 6 mps 725 mmHg 59%
    22:00 +15°C° 0 mm 6 mps 725 mmHg 63%
    23:00 +15°C° 0 mm 6 mps 725 mmHg 65%

    22 June, Friday

    Time Temperature Precipitation Wind Pressure Humidity
    00:00 +14°C° 0 mm 5 mps 725 mmHg 67%
    01:00 +13°C° 0 mm 5 mps 725 mmHg 69%
    02:00 +13°C° 0 mm 5 mps 725 mmHg 71%
    03:00 +12°C° 0 mm 5 mps 725 mmHg 74%
    04:00 +12°C° 0 mm 5 mps 726 mmHg 76%
    05:00 +13°C° 0 mm 6 mps 726 mmHg 71%
    06:00 +14°C° 0 mm 6 mps 726 mmHg 66%
    07:00 +15°C° 0 mm 7 mps 726 mmHg 62%
    08:00 +16°C° 0 mm 7 mps 726 mmHg 55%
    09:00 +18°C° 0 mm 7 mps 726 mmHg 49%
    10:00 +20°C° 0 mm 8 mps 726 mmHg 42%
    11:00 +21°C° 0 mm 8 mps 726 mmHg 41%
    12:00 +21°C° 0 mm 8 mps 726 mmHg 40%
    13:00 +21°C° 0 mm 8 mps 726 mmHg 39%
    14:00 +21°C° 0 mm 8 mps 726 mmHg 39%
    15:00 +21°C° 0 mm 7 mps 727 mmHg 39%
    16:00 +21°C° 0 mm 7 mps 727 mmHg 40%
    17:00 +20°C° 0 mm 6 mps 727 mmHg 44%
    18:00 +20°C° 0 mm 5 mps 727 mmHg 48%
    19:00 +19°C° 0 mm 4 mps 727 mmHg 52%
    20:00 +18°C° 0 mm 4 mps 727 mmHg 56%
    21:00 +17°C° 0 mm 4 mps 728 mmHg 60%
    22:00 +14°C° 0 mm 4 mps 728 mmHg 64%
    23:00 +14°C° 0 mm 4 mps 728 mmHg 67%

    23 June, Saturday

    Time Temperature Precipitation Wind Pressure Humidity
    00:00 +13°C° 0 mm 4 mps 728 mmHg 70%
    01:00 +12°C° 0 mm 4 mps 728 mmHg 72%
    02:00 +12°C° 0 mm 4 mps 728 mmHg 74%
    03:00 +12°C° 0 mm 4 mps 728 mmHg 76%
    04:00 +11°C° 0 mm 4 mps 728 mmHg 78%
    05:00 +13°C° 0 mm 4 mps 728 mmHg 73%
    06:00 +14°C° 0 mm 5 mps 729 mmHg 68%
    07:00 +16°C° 0 mm 5 mps 729 mmHg 63%
    08:00 +19°C° 0 mm 5 mps 729 mmHg 56%
    09:00 +20°C° 0 mm 5 mps 729 mmHg 49%
    10:00 +22°C° 0 mm 6 mps 729 mmHg 42%
    11:00 +23°C° 0 mm 6 mps 729 mmHg 40%
    12:00 +24°C° 0 mm 6 mps 729 mmHg 38%
    13:00 +24°C° 0 mm 6 mps 729 mmHg 35%
    14:00 +26°C° 0 mm 6 mps 729 mmHg 34%
    15:00 +26°C° 0 mm 6 mps 729 mmHg 33%
    16:00 +26°C° 0 mm 6 mps 728 mmHg 32%
    17:00 +25°C° 0 mm 5 mps 729 mmHg 36%
    18:00 +23°C° 0 mm 4 mps 729 mmHg 39%
    19:00 +24°C° 0 mm 3 mps 729 mmHg 43%
    20:00 +21°C° 0 mm 3 mps 729 mmHg 47%
    21:00 +20°C° 0 mm 3 mps 729 mmHg 52%
    22:00 +18°C° 0 mm 3 mps 729 mmHg 56%
    23:00 +17°C° 0 mm 3 mps 729 mmHg 60%

    24 June, Sunday

    Time Temperature Precipitation Wind Pressure Humidity
    00:00 +17°C° 0 mm 3 mps 729 mmHg 64%
    01:00 +16°C° 0 mm 3 mps 729 mmHg 68%
    02:00 +16°C° 0 mm 3 mps 729 mmHg 69%
    03:00 +14°C° 0 mm 3 mps 730 mmHg 70%
    04:00 +14°C° 0 mm 3 mps 730 mmHg 71%
    05:00 +15°C° 0 mm 4 mps 730 mmHg 67%
    06:00 +18°C° 0 mm 4 mps 730 mmHg 63%
    07:00 +19°C° 0 mm 4 mps 731 mmHg 60%
    08:00 +21°C° 0 mm 4 mps 731 mmHg 54%
    09:00 +23°C° 0 mm 4 mps 731 mmHg 49%
    10:00 +26°C° 0 mm 4 mps 731 mmHg 43%
    11:00 +26°C° 0 mm 4 mps 731 mmHg 42%
    12:00 +27°C° 0 mm 4 mps 731 mmHg 41%
    13:00 +27°C° 0 mm 4 mps 731 mmHg 40%
    14:00 +27°C° 0 mm 4 mps 731 mmHg 39%
    15:00 +28°C° 0 mm 4 mps 731 mmHg 38%
    16:00 +28°C° 0 mm 4 mps 731 mmHg 36%
    17:00 +28°C° 0 mm 3 mps 731 mmHg 40%
    18:00 +27°C° 0 mm 3 mps 731 mmHg 43%
    19:00 +26°C° 0 mm 2 mps 731 mmHg 46%
    20:00 +25°C° 0 mm 2 mps 731 mmHg 50%
    21:00 +23°C° 0 mm 1 mps 731 mmHg 54%
    22:00 +21°C° 0 mm 1 mps 732 mmHg 58%
    23:00 +21°C° 0 mm 1 mps 732 mmHg 60%
    Show more